Time,TemperatureF,DewpointF,PressureIn,WindDirection,WindDirectionDegrees,WindSpeedMPH,WindSpeedGustMPH,Humidity,HourlyPrecipIn,Conditions,Clouds,dailyrainin,SoftwareType,DateUTC
2013-05-10 00:01:00,63.1,57.2,30.00,SSW,205,0.0,0.0,81,0.00,,---,0.00,VWS V14.01,2013-05-10 04:01:00,
2013-05-10 00:02:00,62.9,57.3,30.00,SSW,205,0.0,0.0,82,0.00,,---,0.00,VWS V14.01,2013-05-10 04:02:00,
2013-05-10 00:08:00,62.0,57.1,30.00,SSW,205,0.0,0.0,84,0.00,,---,0.00,VWS V14.01,2013-05-10 04:08:00,
2013-05-10 00:13:00,61.5,57.3,30.00,SSW,205,0.0,0.0,86,0.00,,---,0.00,VWS V14.01,2013-05-10 04:13:00,
2013-05-10 00:18:00,61.2,57.3,30.00,SSW,205,0.0,0.0,87,0.00,,---,0.00,VWS V14.01,2013-05-10 04:18:00,
2013-05-10 00:23:00,60.9,57.6,30.00,SSW,205,0.0,0.0,89,0.00,,---,0.00,VWS V14.01,2013-05-10 04:23:00,
2013-05-10 00:28:00,60.7,58.1,30.00,SSW,205,0.0,0.0,91,0.00,,---,0.00,VWS V14.01,2013-05-10 04:28:00,
2013-05-10 00:33:00,60.5,57.9,30.00,SSW,205,0.0,0.0,91,0.00,,---,0.00,VWS V14.01,2013-05-10 04:33:00,
2013-05-10 00:38:00,60.4,57.8,30.00,SSW,205,0.0,2.0,91,0.00,,---,0.00,VWS V14.01,2013-05-10 04:38:00,
2013-05-10 00:43:00,60.6,58.0,30.00,SSW,205,0.0,1.0,91,0.00,,---,0.00,VWS V14.01,2013-05-10 04:43:00,
2013-05-10 00:48:00,60.7,57.4,30.01,SSW,205,0.0,1.0,89,0.00,,---,0.00,VWS V14.01,2013-05-10 04:48:00,
2013-05-10 00:53:00,60.8,57.5,30.01,SSW,205,0.0,0.0,89,0.00,,---,0.00,VWS V14.01,2013-05-10 04:53:00,
2013-05-10 00:58:00,60.2,57.0,30.01,SSW,205,0.0,0.0,89,0.00,,---,0.00,VWS V14.01,2013-05-10 04:58:00,
2013-05-10 01:03:00,59.5,56.6,30.01,SSW,205,0.0,0.0,90,0.00,,---,0.00,VWS V14.01,2013-05-10 05:03:00,
2013-05-10 01:09:00,59.1,56.5,30.01,SSW,205,0.0,0.0,91,0.00,,---,0.00,VWS V14.01,2013-05-10 05:09:00,
2013-05-10 01:14:00,58.9,56.3,30.01,SSW,205,0.0,0.0,91,0.00,,---,0.00,VWS V14.01,2013-05-10 05:14:00,
2013-05-10 01:19:00,58.8,56.5,30.00,SSW,205,0.0,0.0,92,0.00,,---,0.00,VWS V14.01,2013-05-10 05:19:00,
2013-05-10 01:24:00,58.6,56.3,30.00,SSW,205,0.0,0.0,92,0.00,,---,0.00,VWS V14.01,2013-05-10 05:24:00,
2013-05-10 01:29:00,58.5,56.2,29.99,SSW,205,0.0,0.0,92,0.00,,---,0.00,VWS V14.01,2013-05-10 05:29:00,
2013-05-10 01:34:00,58.4,56.4,29.99,SSW,205,0.0,0.0,93,0.00,,---,0.00,VWS V14.01,2013-05-10 05:34:00,
2013-05-10 01:39:00,58.3,56.0,29.99,SSW,205,0.0,0.0,92,0.00,,---,0.00,VWS V14.01,2013-05-10 05:39:00,
2013-05-10 01:44:00,58.2,56.2,29.99,SSW,205,0.0,0.0,93,0.00,,---,0.00,VWS V14.01,2013-05-10 05:44:00,
2013-05-10 01:49:00,58.2,56.2,29.99,SSW,205,0.0,0.0,93,0.00,,---,0.00,VWS V14.01,2013-05-10 05:49:00,
2013-05-10 01:54:00,58.1,56.1,29.99,SSW,205,0.0,0.0,93,0.00,,---,0.00,VWS V14.01,2013-05-10 05:54:00,
2013-05-10 02:00:00,58.0,56.0,29.99,SSW,205,0.0,0.0,93,0.00,,---,0.00,VWS V14.01,2013-05-10 06:00:00,
2013-05-10 02:05:00,57.9,56.2,29.99,SSW,205,0.0,0.0,94,0.00,,---,0.00,VWS V14.01,2013-05-10 06:05:00,
2013-05-10 02:10:00,57.8,56.1,29.99,SSW,205,0.0,0.0,94,0.00,,---,0.00,VWS V14.01,2013-05-10 06:10:00,
2013-05-10 02:15:00,57.8,56.1,29.99,SSW,205,0.0,0.0,94,0.00,,---,0.00,VWS V14.01,2013-05-10 06:15:00,
2013-05-10 02:20:00,57.7,56.3,29.99,SSW,205,0.0,0.0,95,0.00,,---,0.00,VWS V14.01,2013-05-10 06:20:00,
2013-05-10 02:25:00,57.6,56.2,29.99,SSW,205,0.0,0.0,95,0.00,,---,0.00,VWS V14.01,2013-05-10 06:25:00,
2013-05-10 02:30:00,57.5,56.1,29.99,SSW,205,0.0,0.0,95,0.00,,---,0.00,VWS V14.01,2013-05-10 06:30:00,
2013-05-10 02:35:00,57.5,55.8,29.99,SSW,205,0.0,0.0,94,0.00,,---,0.00,VWS V14.01,2013-05-10 06:35:00,
2013-05-10 02:40:00,57.4,56.0,29.99,SSW,205,0.0,0.0,95,0.00,,---,0.00,VWS V14.01,2013-05-10 06:40:00,
2013-05-10 02:45:00,57.4,56.0,30.00,SSW,205,0.0,0.0,95,0.00,,---,0.00,VWS V14.01,2013-05-10 06:45:00,
2013-05-10 02:50:00,57.4,56.0,30.00,SSW,205,0.0,0.0,95,0.00,,---,0.00,VWS V14.01,2013-05-10 06:50:00,
2013-05-10 02:55:00,57.3,55.9,30.00,SSW,205,0.0,0.0,95,0.00,,---,0.00,VWS V14.01,2013-05-10 06:55:00,
2013-05-10 03:00:00,57.3,56.2,30.00,SSW,205,0.0,0.0,96,0.00,,---,0.00,VWS V14.01,2013-05-10 07:00:00,
2013-05-10 03:05:00,57.2,56.1,30.00,SSW,205,0.0,0.0,96,0.00,,---,0.00,VWS V14.01,2013-05-10 07:05:00,
2013-05-10 03:10:00,57.3,56.2,30.00,SSW,205,0.0,0.0,96,0.00,,---,0.00,VWS V14.01,2013-05-10 07:10:00,
2013-05-10 03:16:00,57.2,56.1,29.99,SSW,205,0.0,0.0,96,0.00,,---,0.00,VWS V14.01,2013-05-10 07:16:00,
2013-05-10 03:21:00,56.9,55.8,29.99,SSW,205,0.0,0.0,96,0.00,,---,0.00,VWS V14.01,2013-05-10 07:21:00,
2013-05-10 03:26:00,56.9,55.8,29.99,SSW,205,0.0,0.0,96,0.00,,---,0.00,VWS V14.01,2013-05-10 07:26:00,
2013-05-10 03:31:00,56.9,55.8,29.99,SSW,205,0.0,0.0,96,0.00,,---,0.00,VWS V14.01,2013-05-10 07:31:00,
2013-05-10 03:36:00,56.8,55.7,29.99,SSW,205,0.0,0.0,96,0.00,,---,0.00,VWS V14.01,2013-05-10 07:36:00,
2013-05-10 03:41:00,56.8,55.7,29.99,SSW,205,0.0,0.0,96,0.00,,---,0.00,VWS V14.01,2013-05-10 07:41:00,
2013-05-10 03:46:00,56.7,55.6,29.99,SSW,205,0.0,0.0,96,0.00,,---,0.00,VWS V14.01,2013-05-10 07:46:00,
2013-05-10 03:51:00,56.7,55.6,29.99,SSW,205,0.0,0.0,96,0.00,,---,0.00,VWS V14.01,2013-05-10 07:51:00,
2013-05-10 03:56:00,56.6,55.5,29.99,SSW,205,0.0,0.0,96,0.00,,---,0.00,VWS V14.01,2013-05-10 07:56:00,
2013-05-10 04:02:00,56.5,55.4,29.99,SSW,205,0.0,0.0,96,0.00,,---,0.00,VWS V14.01,2013-05-10 08:02:00,
2013-05-10 04:07:00,56.4,55.3,29.99,SSW,205,0.0,0.0,96,0.00,,---,0.00,VWS V14.01,2013-05-10 08:07:00,
2013-05-10 04:12:00,56.3,55.2,29.99,SSW,205,0.0,0.0,96,0.00,,---,0.00,VWS V14.01,2013-05-10 08:12:00,
2013-05-10 04:17:00,56.2,55.1,29.99,SSW,205,0.0,0.0,96,0.00,,---,0.00,VWS V14.01,2013-05-10 08:17:00,
2013-05-10 04:22:00,56.2,55.1,29.99,SSW,205,0.0,0.0,96,0.00,,---,0.00,VWS V14.01,2013-05-10 08:22:00,
2013-05-10 04:27:00,56.1,55.0,29.99,SSW,205,0.0,0.0,96,0.00,,---,0.00,VWS V14.01,2013-05-10 08:27:00,
2013-05-10 04:32:00,56.0,54.9,29.98,SSW,205,0.0,0.0,96,0.00,,---,0.00,VWS V14.01,2013-05-10 08:32:00,
2013-05-10 04:37:00,55.9,54.8,29.98,SSW,205,0.0,0.0,96,0.00,,---,0.00,VWS V14.01,2013-05-10 08:37:00,
2013-05-10 04:42:00,55.8,54.7,29.98,SSW,205,0.0,0.0,96,0.00,,---,0.00,VWS V14.01,2013-05-10 08:42:00,
2013-05-10 04:47:00,55.7,54.9,29.97,SSW,205,0.0,0.0,97,0.00,,---,0.00,VWS V14.01,2013-05-10 08:47:00,
2013-05-10 04:53:00,55.7,54.9,29.97,SSW,205,0.0,0.0,97,0.00,,---,0.00,VWS V14.01,2013-05-10 08:53:00,
2013-05-10 04:58:00,55.6,54.8,29.97,SSW,205,0.0,0.0,97,0.00,,---,0.00,VWS V14.01,2013-05-10 08:58:00,
2013-05-10 05:03:00,55.6,54.8,29.97,SSW,205,0.0,0.0,97,0.00,,---,0.00,VWS V14.01,2013-05-10 09:03:00,
2013-05-10 05:08:00,55.7,54.9,29.97,SSW,205,0.0,0.0,97,0.00,,---,0.00,VWS V14.01,2013-05-10 09:08:00,
2013-05-10 05:13:00,55.7,54.9,29.97,SSW,205,0.0,0.0,97,0.00,,---,0.00,VWS V14.01,2013-05-10 09:13:00,
2013-05-10 05:18:00,55.5,54.7,29.97,SSW,205,0.0,0.0,97,0.00,,---,0.00,VWS V14.01,2013-05-10 09:18:00,
2013-05-10 05:23:00,55.5,54.7,29.97,SSW,205,0.0,0.0,97,0.00,,---,0.00,VWS V14.01,2013-05-10 09:23:00,
2013-05-10 05:28:00,55.6,54.8,29.97,SSW,205,0.0,0.0,97,0.00,,---,0.00,VWS V14.01,2013-05-10 09:28:00,
2013-05-10 05:33:00,55.5,54.7,29.97,SSW,205,0.0,0.0,97,0.00,,---,0.00,VWS V14.01,2013-05-10 09:33:00,
2013-05-10 05:39:00,55.3,54.5,29.97,SSW,205,0.0,0.0,97,0.00,,---,0.00,VWS V14.01,2013-05-10 09:39:00,
2013-05-10 05:44:00,55.1,54.3,29.97,SSW,205,0.0,0.0,97,0.00,,---,0.00,VWS V14.01,2013-05-10 09:44:00,
2013-05-10 05:49:00,55.2,54.4,29.97,SSW,205,0.0,0.0,97,0.00,,---,0.00,VWS V14.01,2013-05-10 09:49:00,
2013-05-10 05:54:00,55.1,54.3,29.97,SSW,205,0.0,0.0,97,0.00,,---,0.00,VWS V14.01,2013-05-10 09:54:00,
2013-05-10 05:59:00,54.9,54.1,29.97,SSW,205,0.0,0.0,97,0.00,,---,0.00,VWS V14.01,2013-05-10 09:59:00,
2013-05-10 06:04:00,54.9,54.1,29.97,SSW,205,0.0,0.0,97,0.00,,---,0.00,VWS V14.01,2013-05-10 10:04:00,
2013-05-10 06:09:00,54.8,54.0,29.97,SSW,205,0.0,0.0,97,0.00,,---,0.00,VWS V14.01,2013-05-10 10:09:00,
2013-05-10 06:14:00,54.9,54.1,29.98,SSW,205,0.0,0.0,97,0.00,,---,0.00,VWS V14.01,2013-05-10 10:14:00,
2013-05-10 06:19:00,54.9,54.1,29.98,SSW,205,0.0,0.0,97,0.00,,---,0.00,VWS V14.01,2013-05-10 10:19:00,
2013-05-10 06:24:00,55.0,54.2,29.98,SSW,205,0.0,0.0,97,0.00,,---,0.00,VWS V14.01,2013-05-10 10:24:00,
2013-05-10 06:30:00,54.9,54.1,29.98,SSW,205,0.0,0.0,97,0.00,,---,0.00,VWS V14.01,2013-05-10 10:30:00,
2013-05-10 06:35:00,55.1,54.3,29.98,SSW,205,0.0,0.0,97,0.00,,---,0.00,VWS V14.01,2013-05-10 10:35:00,
2013-05-10 06:40:00,55.0,54.2,29.98,SSW,205,0.0,0.0,97,0.00,,---,0.00,VWS V14.01,2013-05-10 10:40:00,
2013-05-10 06:45:00,55.0,54.2,29.99,SSW,205,0.0,0.0,97,0.00,,---,0.00,VWS V14.01,2013-05-10 10:45:00,
2013-05-10 06:50:00,55.1,54.3,29.99,SSW,205,0.0,0.0,97,0.00,,---,0.00,VWS V14.01,2013-05-10 10:50:00,
2013-05-10 06:55:00,55.1,54.3,29.99,SSW,205,0.0,0.0,97,0.00,,---,0.00,VWS V14.01,2013-05-10 10:55:00,
2013-05-10 07:00:00,55.1,54.3,29.99,SSW,205,0.0,0.0,97,0.00,,---,0.00,VWS V14.01,2013-05-10 11:00:00,
2013-05-10 07:05:00,55.1,54.3,29.99,SSW,205,0.0,0.0,97,0.00,,---,0.00,VWS V14.01,2013-05-10 11:05:00,
2013-05-10 07:10:00,55.1,54.3,29.99,SSW,205,0.0,0.0,97,0.00,,---,0.00,VWS V14.01,2013-05-10 11:10:00,
2013-05-10 07:15:00,55.0,54.2,29.99,SSW,205,0.0,0.0,97,0.00,,---,0.00,VWS V14.01,2013-05-10 11:15:00,
2013-05-10 07:20:00,55.2,54.7,29.99,SSW,205,0.0,0.0,98,0.00,,---,0.00,VWS V14.01,2013-05-10 11:20:00,
2013-05-10 07:26:00,55.3,54.8,29.99,SSW,205,0.0,0.0,98,0.00,,---,0.00,VWS V14.01,2013-05-10 11:26:00,
2013-05-10 07:31:00,55.5,54.7,29.99,SSW,205,0.0,0.0,97,0.00,,---,0.00,VWS V14.01,2013-05-10 11:31:00,
2013-05-10 07:36:00,55.9,55.3,29.99,SSW,205,0.0,0.0,98,0.00,,---,0.00,VWS V14.01,2013-05-10 11:36:00,
2013-05-10 07:41:00,56.1,55.5,29.99,SSW,205,0.0,0.0,98,0.00,,---,0.00,VWS V14.01,2013-05-10 11:41:00,
2013-05-10 07:46:00,56.5,55.9,29.99,SSW,205,0.0,0.0,98,0.00,,---,0.00,VWS V14.01,2013-05-10 11:46:00,
2013-05-10 07:51:00,56.9,56.3,29.99,SSW,205,0.0,0.0,98,0.00,,---,0.00,VWS V14.01,2013-05-10 11:51:00,
2013-05-10 07:56:00,57.3,56.7,29.99,SSW,205,0.0,0.0,98,0.00,,---,0.00,VWS V14.01,2013-05-10 11:56:00,
2013-05-10 08:01:00,57.8,57.2,29.99,SSW,205,0.0,0.0,98,0.00,,---,0.00,VWS V14.01,2013-05-10 12:01:00,
2013-05-10 08:06:00,58.6,58.0,29.99,SSW,205,0.0,0.0,98,0.00,,---,0.00,VWS V14.01,2013-05-10 12:06:00,
2013-05-10 08:12:00,59.3,58.5,29.99,SSW,205,0.0,0.0,97,0.00,,---,0.00,VWS V14.01,2013-05-10 12:12:00,
2013-05-10 08:17:00,59.8,58.7,29.98,SSW,205,0.0,0.0,96,0.00,,---,0.00,VWS V14.01,2013-05-10 12:17:00,
2013-05-10 08:22:00,60.4,59.0,29.98,SSW,205,0.0,0.0,95,0.00,,---,0.00,VWS V14.01,2013-05-10 12:22:00,
2013-05-10 08:27:00,61.4,59.1,29.98,SSW,205,0.0,0.0,92,0.00,,---,0.00,VWS V14.01,2013-05-10 12:27:00,
2013-05-10 08:32:00,62.0,59.3,29.98,SSW,205,0.0,0.0,91,0.00,,---,0.00,VWS V14.01,2013-05-10 12:32:00,
2013-05-10 08:37:00,62.7,59.7,29.98,SSW,205,0.0,0.0,90,0.00,,---,0.00,VWS V14.01,2013-05-10 12:37:00,
2013-05-10 08:42:00,63.2,59.3,29.98,SSW,205,0.0,0.0,87,0.00,,---,0.00,VWS V14.01,2013-05-10 12:42:00,
2013-05-10 08:47:00,63.8,59.9,29.98,SSW,205,0.0,0.0,87,0.00,,---,0.00,VWS V14.01,2013-05-10 12:47:00,
2013-05-10 08:52:00,64.5,60.2,29.98,SSW,205,0.0,0.0,86,0.00,,---,0.00,VWS V14.01,2013-05-10 12:52:00,
2013-05-10 08:57:00,65.3,61.3,29.98,SSW,205,0.0,0.0,87,0.00,,---,0.00,VWS V14.01,2013-05-10 12:57:00,
2013-05-10 09:03:00,65.4,60.5,29.97,SSW,205,0.0,0.0,84,0.00,,---,0.00,VWS V14.01,2013-05-10 13:03:00,
2013-05-10 09:08:00,65.8,60.5,29.97,SSW,205,0.0,0.0,83,0.00,,---,0.00,VWS V14.01,2013-05-10 13:08:00,
2013-05-10 09:13:00,66.1,61.1,29.97,SSW,205,0.0,0.0,84,0.00,,---,0.00,VWS V14.01,2013-05-10 13:13:00,
2013-05-10 09:18:00,67.1,62.1,29.97,SSW,205,0.0,0.0,84,0.00,,---,0.00,VWS V14.01,2013-05-10 13:18:00,
2013-05-10 09:23:00,67.7,62.7,29.97,SSW,205,0.0,0.0,84,0.00,,---,0.00,VWS V14.01,2013-05-10 13:23:00,
2013-05-10 09:28:00,67.9,61.5,29.97,SSW,205,0.0,0.0,80,0.00,,---,0.00,VWS V14.01,2013-05-10 13:28:00,
2013-05-10 09:33:00,68.5,61.4,29.97,SSW,205,0.0,3.0,78,0.00,,---,0.00,VWS V14.01,2013-05-10 13:33:00,
2013-05-10 09:38:00,68.9,60.3,29.97,SSW,205,0.0,3.0,74,0.00,,---,0.00,VWS V14.01,2013-05-10 13:38:00,
2013-05-10 09:43:00,69.5,60.9,29.97,SSW,205,0.0,2.0,74,0.00,,---,0.00,VWS V14.01,2013-05-10 13:43:00,
2013-05-10 09:48:00,70.3,61.6,29.98,SSW,205,0.0,2.0,74,0.00,,---,0.00,VWS V14.01,2013-05-10 13:48:00,
2013-05-10 09:53:00,70.4,62.5,29.98,SSW,205,1.0,2.0,76,0.00,,---,0.00,VWS V14.01,2013-05-10 13:53:00,
2013-05-10 09:59:00,70.9,61.8,29.98,SSW,205,1.0,2.0,73,0.00,,---,0.00,VWS V14.01,2013-05-10 13:59:00,
2013-05-10 10:04:00,71.2,61.3,29.98,SSW,205,1.0,2.0,71,0.00,,---,0.00,VWS V14.01,2013-05-10 14:04:00,
2013-05-10 10:09:00,71.7,61.8,29.98,SSW,205,2.0,2.0,71,0.00,,---,0.00,VWS V14.01,2013-05-10 14:09:00,
2013-05-10 10:14:00,72.0,61.3,29.98,SSW,205,0.0,2.0,69,0.00,,---,0.00,VWS V14.01,2013-05-10 14:14:00,
2013-05-10 10:19:00,72.1,62.2,29.98,SSW,205,1.0,2.0,71,0.00,,---,0.00,VWS V14.01,2013-05-10 14:19:00,
2013-05-10 10:24:00,72.3,61.6,29.98,SSW,205,1.0,3.0,69,0.00,,---,0.00,VWS V14.01,2013-05-10 14:24:00,
2013-05-10 10:29:00,72.9,63.0,29.98,SSW,205,0.0,3.0,71,0.00,,---,0.00,VWS V14.01,2013-05-10 14:29:00,
2013-05-10 10:34:00,72.8,61.6,29.98,SSW,205,0.0,5.0,68,0.00,,---,0.00,VWS V14.01,2013-05-10 14:34:00,
2013-05-10 10:39:00,73.1,62.3,29.98,SSW,205,0.0,5.0,69,0.00,,---,0.00,VWS V14.01,2013-05-10 14:39:00,
2013-05-10 10:44:00,73.8,62.2,29.98,SSW,205,0.0,4.0,67,0.00,,---,0.00,VWS V14.01,2013-05-10 14:44:00,
2013-05-10 10:50:00,74.2,63.0,29.98,SSW,205,0.0,4.0,68,0.00,,---,0.00,VWS V14.01,2013-05-10 14:50:00,
2013-05-10 10:55:00,74.4,63.2,29.98,SSW,205,4.0,4.0,68,0.00,,---,0.00,VWS V14.01,2013-05-10 14:55:00,
2013-05-10 11:00:00,74.6,63.3,29.98,SSW,208,2.0,4.0,68,0.00,,---,0.00,VWS V14.01,2013-05-10 15:00:00,
2013-05-10 11:05:00,74.8,64.4,29.98,SSW,198,0.0,3.0,70,0.00,,---,0.00,VWS V14.01,2013-05-10 15:05:00,
2013-05-10 11:10:00,74.9,63.2,29.98,ESE,115,2.0,4.0,67,0.00,,---,0.00,VWS V14.01,2013-05-10 15:10:00,
2013-05-10 11:15:00,75.4,61.9,29.97,South,187,0.0,5.0,63,0.00,,---,0.00,VWS V14.01,2013-05-10 15:15:00,
2013-05-10 11:20:00,75.5,62.9,29.97,South,184,2.0,3.0,65,0.00,,---,0.00,VWS V14.01,2013-05-10 15:20:00,
2013-05-10 11:25:00,76.0,65.5,29.97,South,185,2.0,3.0,70,0.00,,---,0.00,VWS V14.01,2013-05-10 15:25:00,
2013-05-10 11:30:00,76.2,62.7,29.97,WSW,256,1.0,2.0,63,0.00,,---,0.00,VWS V14.01,2013-05-10 15:30:00,
2013-05-10 11:35:00,77.2,64.1,29.97,WSW,246,2.0,5.0,64,0.00,,---,0.00,VWS V14.01,2013-05-10 15:35:00,
2013-05-10 11:40:00,77.9,62.4,29.97,SSE,168,4.0,4.0,59,0.00,,---,0.00,VWS V14.01,2013-05-10 15:40:00,
2013-05-10 11:45:00,77.6,63.1,29.97,South,191,0.0,7.0,61,0.00,,---,0.00,VWS V14.01,2013-05-10 15:45:00,
2013-05-10 11:51:00,78.0,64.8,29.97,SSW,198,2.0,3.0,64,0.00,,---,0.00,VWS V14.01,2013-05-10 15:51:00,
2013-05-10 11:56:00,78.1,63.6,29.97,SSW,207,3.0,5.0,61,0.00,,---,0.00,VWS V14.01,2013-05-10 15:56:00,
2013-05-10 12:01:00,78.0,62.0,29.97,South,186,3.0,7.0,58,0.00,,---,0.00,VWS V14.01,2013-05-10 16:01:00,
2013-05-10 12:06:00,78.1,63.1,29.97,ESE,108,3.0,10.0,60,0.00,,---,0.00,VWS V14.01,2013-05-10 16:06:00,
2013-05-10 12:11:00,78.2,62.7,29.97,South,176,6.0,7.0,59,0.00,,---,0.00,VWS V14.01,2013-05-10 16:11:00,
2013-05-10 12:16:00,78.2,62.7,29.97,SSW,209,2.0,7.0,59,0.00,,---,0.00,VWS V14.01,2013-05-10 16:16:00,
2013-05-10 12:21:00,79.1,63.1,29.97,SE,125,0.0,5.0,58,0.00,,---,0.00,VWS V14.01,2013-05-10 16:21:00,
2013-05-10 12:26:00,79.4,63.3,29.97,WSW,252,4.0,5.0,58,0.00,,---,0.00,VWS V14.01,2013-05-10 16:26:00,
2013-05-10 12:31:00,79.0,62.5,29.97,SSW,200,6.0,11.0,57,0.00,,---,0.00,VWS V14.01,2013-05-10 16:31:00,
2013-05-10 12:37:00,79.0,62.0,29.97,South,188,2.0,11.0,56,0.00,,---,0.00,VWS V14.01,2013-05-10 16:37:00,
2013-05-10 12:42:00,80.2,63.6,29.97,SSW,210,2.0,7.0,57,0.00,,---,0.00,VWS V14.01,2013-05-10 16:42:00,
2013-05-10 12:47:00,80.3,64.2,29.95,South,191,6.0,8.0,58,0.00,,---,0.00,VWS V14.01,2013-05-10 16:47:00,
2013-05-10 12:52:00,79.1,62.6,29.95,SSW,205,4.0,7.0,57,0.00,,---,0.00,VWS V14.01,2013-05-10 16:52:00,
2013-05-10 12:57:00,78.9,63.4,29.95,SW,230,4.0,11.0,59,0.00,,---,0.00,VWS V14.01,2013-05-10 16:57:00,
2013-05-10 13:02:00,79.0,62.5,29.95,South,188,5.0,9.0,57,0.00,,---,0.00,VWS V14.01,2013-05-10 17:02:00,
2013-05-10 13:07:00,79.2,60.6,29.95,South,190,5.0,9.0,53,0.00,,---,0.00,VWS V14.01,2013-05-10 17:07:00,
2013-05-10 13:12:00,79.4,61.3,29.95,SSW,201,9.0,10.0,54,0.00,,---,0.00,VWS V14.01,2013-05-10 17:12:00,
2013-05-10 13:17:00,79.7,60.5,29.95,WSW,244,2.0,10.0,52,0.00,,---,0.00,VWS V14.01,2013-05-10 17:17:00,
2013-05-10 13:22:00,80.2,63.1,29.95,SW,219,2.0,12.0,56,0.00,,---,0.00,VWS V14.01,2013-05-10 17:22:00,
2013-05-10 13:27:00,80.0,60.8,29.95,SW,217,11.0,12.0,52,0.00,,---,0.00,VWS V14.01,2013-05-10 17:27:00,
2013-05-10 13:32:00,79.7,63.1,29.95,SSW,198,4.0,6.0,57,0.00,,---,0.00,VWS V14.01,2013-05-10 17:32:00,
2013-05-10 13:38:00,80.3,61.6,29.95,SSW,196,7.0,12.0,53,0.00,,---,0.00,VWS V14.01,2013-05-10 17:38:00,
2013-05-10 13:43:00,80.4,61.7,29.95,SW,225,9.0,13.0,53,0.00,,---,0.00,VWS V14.01,2013-05-10 17:43:00,
2013-05-10 13:48:00,80.7,61.5,29.95,SSW,211,3.0,14.0,52,0.00,,---,0.00,VWS V14.01,2013-05-10 17:48:00,
2013-05-10 13:53:00,80.6,61.9,29.95,South,184,3.0,10.0,53,0.00,,---,0.00,VWS V14.01,2013-05-10 17:53:00,
2013-05-10 13:58:00,80.0,62.4,29.95,SSW,195,3.0,12.0,55,0.00,,---,0.00,VWS V14.01,2013-05-10 17:58:00,
2013-05-10 14:03:00,80.4,61.7,29.94,WSW,242,10.0,15.0,53,0.00,,---,0.00,VWS V14.01,2013-05-10 18:03:00,
2013-05-10 14:08:00,80.3,61.6,29.94,SSE,164,10.0,15.0,53,0.00,,---,0.00,VWS V14.01,2013-05-10 18:08:00,
2013-05-10 14:13:00,80.4,62.8,29.94,SW,221,4.0,12.0,55,0.00,,---,0.00,VWS V14.01,2013-05-10 18:13:00,
2013-05-10 14:18:00,81.6,60.6,29.93,South,175,4.0,12.0,49,0.00,,---,0.00,VWS V14.01,2013-05-10 18:18:00,
2013-05-10 14:23:00,81.5,60.5,29.93,SSE,151,4.0,14.0,49,0.00,,---,0.00,VWS V14.01,2013-05-10 18:23:00,
2013-05-10 14:28:00,81.3,59.8,29.93,SW,236,11.0,15.0,48,0.00,,---,0.00,VWS V14.01,2013-05-10 18:28:00,
2013-05-10 14:33:00,81.1,60.7,29.93,West,267,7.0,13.0,50,0.00,,---,0.00,VWS V14.01,2013-05-10 18:33:00,
2013-05-10 14:39:00,81.4,63.2,29.93,WSW,258,3.0,16.0,54,0.00,,---,0.00,VWS V14.01,2013-05-10 18:39:00,
2013-05-10 14:44:00,80.7,60.9,29.93,SSW,204,2.0,15.0,51,0.00,,---,0.00,VWS V14.01,2013-05-10 18:44:00,
2013-05-10 14:49:00,81.3,60.3,29.93,SSW,204,6.0,17.0,49,0.00,,---,0.00,VWS V14.01,2013-05-10 18:49:00,
2013-05-10 14:54:00,81.2,60.8,29.93,SW,219,7.0,16.0,50,0.00,,---,0.00,VWS V14.01,2013-05-10 18:54:00,
2013-05-10 14:59:00,80.1,62.5,29.92,WSW,242,5.0,16.0,55,0.00,,---,0.00,VWS V14.01,2013-05-10 18:59:00,
2013-05-10 15:04:00,80.6,61.4,29.92,SSW,198,6.0,14.0,52,0.00,,---,0.00,VWS V14.01,2013-05-10 19:04:00,
2013-05-10 15:09:00,80.5,61.8,29.92,SW,217,8.0,18.0,53,0.00,,---,0.00,VWS V14.01,2013-05-10 19:09:00,
2013-05-10 15:14:00,80.7,63.0,29.92,SSE,153,4.0,10.0,55,0.00,,---,0.00,VWS V14.01,2013-05-10 19:14:00,
2013-05-10 15:19:00,80.8,62.6,29.92,SSW,201,5.0,11.0,54,0.00,,---,0.00,VWS V14.01,2013-05-10 19:19:00,
2013-05-10 15:24:00,79.9,61.8,29.92,South,169,3.0,14.0,54,0.00,,---,0.00,VWS V14.01,2013-05-10 19:24:00,
2013-05-10 15:30:00,79.9,61.3,29.91,South,188,5.0,14.0,53,0.00,,---,0.00,VWS V14.01,2013-05-10 19:30:00,
2013-05-10 15:35:00,79.6,60.4,29.91,South,179,12.0,14.0,52,0.00,,---,0.00,VWS V14.01,2013-05-10 19:35:00,
2013-05-10 15:40:00,79.9,60.2,29.91,SSE,161,11.0,16.0,51,0.00,,---,0.00,VWS V14.01,2013-05-10 19:40:00,
2013-05-10 15:45:00,80.2,59.9,29.90,West,263,12.0,15.0,50,0.00,,---,0.00,VWS V14.01,2013-05-10 19:45:00,
2013-05-10 15:50:00,79.9,59.6,29.90,NE,45,3.0,17.0,50,0.00,,---,0.00,VWS V14.01,2013-05-10 19:50:00,
2013-05-10 15:55:00,80.3,61.1,29.90,SW,215,2.0,17.0,52,0.00,,---,0.00,VWS V14.01,2013-05-10 19:55:00,
2013-05-10 16:00:00,80.1,59.8,29.89,SSW,197,11.0,20.0,50,0.00,,---,0.00,VWS V14.01,2013-05-10 20:00:00,
2013-05-10 16:05:00,80.3,59.4,29.89,WSW,243,3.0,18.0,49,0.00,,---,0.00,VWS V14.01,2013-05-10 20:05:00,
2013-05-10 16:10:00,80.7,60.3,29.89,WSW,246,2.0,4.0,50,0.00,,---,0.00,VWS V14.01,2013-05-10 20:10:00,
2013-05-10 16:15:00,80.8,60.4,29.89,SSW,208,5.0,12.0,50,0.00,,---,0.00,VWS V14.01,2013-05-10 20:15:00,
2013-05-10 16:20:00,80.7,59.8,29.89,SSW,202,3.0,5.0,49,0.00,,---,0.00,VWS V14.01,2013-05-10 20:20:00,
2013-05-10 16:25:00,80.8,59.9,29.89,SW,219,9.0,18.0,49,0.00,,---,0.00,VWS V14.01,2013-05-10 20:25:00,
2013-05-10 16:30:00,80.5,59.0,29.89,SW,217,7.0,7.0,48,0.00,,---,0.00,VWS V14.01,2013-05-10 20:30:00,
2013-05-10 16:35:00,80.3,60.0,29.89,SSW,213,5.0,11.0,50,0.00,,---,0.00,VWS V14.01,2013-05-10 20:35:00,
2013-05-10 16:40:00,80.3,60.0,29.89,SSW,197,6.0,10.0,50,0.00,,---,0.00,VWS V14.01,2013-05-10 20:40:00,
2013-05-10 16:45:00,80.0,60.3,29.89,SW,221,4.0,14.0,51,0.00,,---,0.00,VWS V14.01,2013-05-10 20:45:00,
2013-05-10 16:51:00,79.9,60.2,29.89,WSW,247,10.0,10.0,51,0.00,,---,0.00,VWS V14.01,2013-05-10 20:51:00,
2013-05-10 16:56:00,79.8,60.6,29.89,SSW,202,4.0,13.0,52,0.00,,---,0.00,VWS V14.01,2013-05-10 20:56:00,
2013-05-10 17:01:00,79.5,59.8,29.89,South,180,9.0,12.0,51,0.00,,---,0.00,VWS V14.01,2013-05-10 21:01:00,
2013-05-10 17:06:00,79.4,60.3,29.89,SW,222,6.0,12.0,52,0.00,,---,0.00,VWS V14.01,2013-05-10 21:06:00,
2013-05-10 17:11:00,79.4,60.8,29.89,SSW,192,0.0,4.0,53,0.00,,---,0.00,VWS V14.01,2013-05-10 21:11:00,
2013-05-10 17:16:00,79.3,60.2,29.88,SW,224,7.0,14.0,52,0.00,,---,0.00,VWS V14.01,2013-05-10 21:16:00,
2013-05-10 17:21:00,78.9,60.3,29.88,SW,235,5.0,11.0,53,0.00,,---,0.00,VWS V14.01,2013-05-10 21:21:00,
2013-05-10 17:26:00,78.7,59.6,29.88,SW,214,7.0,13.0,52,0.00,,---,0.00,VWS V14.01,2013-05-10 21:26:00,
2013-05-10 17:31:00,78.5,59.4,29.88,SSW,211,9.0,10.0,52,0.00,,---,0.00,VWS V14.01,2013-05-10 21:31:00,
2013-05-10 17:36:00,78.4,59.9,29.88,SSW,211,4.0,14.0,53,0.00,,---,0.00,VWS V14.01,2013-05-10 21:36:00,
2013-05-10 17:42:00,78.3,59.2,29.88,SSW,207,4.0,12.0,52,0.00,,---,0.00,VWS V14.01,2013-05-10 21:42:00,
2013-05-10 17:47:00,78.1,59.6,29.88,South,186,2.0,12.0,53,0.00,,---,0.00,VWS V14.01,2013-05-10 21:47:00,
2013-05-10 17:52:00,78.0,60.0,29.88,SSW,195,10.0,11.0,54,0.00,,---,0.00,VWS V14.01,2013-05-10 21:52:00,
2013-05-10 17:57:00,77.8,60.4,29.88,SSW,202,6.0,11.0,55,0.00,,---,0.00,VWS V14.01,2013-05-10 21:57:00,
2013-05-10 17:58:00,77.8,59.8,29.88,SSW,210,5.0,11.0,54,0.00,,---,0.00,VWS V14.01,2013-05-10 21:58:00,
2013-05-10 17:59:00,77.8,60.4,29.88,SSE,159,0.0,11.0,55,0.00,,---,0.00,VWS V14.01,2013-05-10 21:59:00,
2013-05-10 18:05:00,77.7,59.8,29.88,SW,217,10.0,10.0,54,0.00,,---,0.00,VWS V14.01,2013-05-10 22:05:00,
2013-05-10 18:10:00,77.6,60.2,29.88,South,182,2.0,10.0,55,0.00,,---,0.00,VWS V14.01,2013-05-10 22:10:00,
2013-05-10 18:15:00,77.4,61.0,29.87,SSW,209,2.0,6.0,57,0.00,,---,0.00,VWS V14.01,2013-05-10 22:15:00,
2013-05-10 18:20:00,77.2,60.3,29.87,SSW,196,9.0,10.0,56,0.00,,---,0.00,VWS V14.01,2013-05-10 22:20:00,
2013-05-10 18:25:00,77.3,60.4,29.87,SW,227,4.0,9.0,56,0.00,,---,0.00,VWS V14.01,2013-05-10 22:25:00,
2013-05-10 18:30:00,77.1,60.2,29.88,SSW,197,3.0,9.0,56,0.00,,---,0.00,VWS V14.01,2013-05-10 22:30:00,
2013-05-10 18:35:00,77.1,60.7,29.88,SSW,207,0.0,9.0,57,0.00,,---,0.00,VWS V14.01,2013-05-10 22:35:00,
2013-05-10 18:40:00,76.9,60.5,29.88,SSW,209,4.0,7.0,57,0.00,,---,0.00,VWS V14.01,2013-05-10 22:40:00,
2013-05-10 18:45:00,76.8,60.4,29.87,SSW,200,4.0,9.0,57,0.00,,---,0.00,VWS V14.01,2013-05-10 22:45:00,
2013-05-10 18:50:00,76.6,60.7,29.87,SSW,203,5.0,5.0,58,0.00,,---,0.00,VWS V14.01,2013-05-10 22:50:00,
2013-05-10 18:55:00,76.4,61.0,29.87,SSW,194,0.0,7.0,59,0.00,,---,0.00,VWS V14.01,2013-05-10 22:55:00,
2013-05-10 19:00:00,76.2,60.8,29.87,SSW,193,3.0,6.0,59,0.00,,---,0.00,VWS V14.01,2013-05-10 23:00:00,
2013-05-10 19:05:00,76.1,61.2,29.87,SW,215,1.0,7.0,60,0.00,,---,0.00,VWS V14.01,2013-05-10 23:05:00,
2013-05-10 19:11:00,75.9,61.0,29.87,SSW,193,1.0,3.0,60,0.00,,---,0.00,VWS V14.01,2013-05-10 23:11:00,
2013-05-10 19:16:00,75.6,61.2,29.87,South,171,3.0,7.0,61,0.00,,---,0.00,VWS V14.01,2013-05-10 23:16:00,
2013-05-10 19:21:00,75.5,61.1,29.87,SSW,200,3.0,5.0,61,0.00,,---,0.00,VWS V14.01,2013-05-10 23:21:00,
2013-05-10 19:26:00,75.3,60.9,29.87,SW,232,3.0,6.0,61,0.00,,---,0.00,VWS V14.01,2013-05-10 23:26:00,
2013-05-10 19:31:00,75.1,61.2,29.87,SSW,197,3.0,5.0,62,0.00,,---,0.00,VWS V14.01,2013-05-10 23:31:00,
2013-05-10 19:36:00,74.8,61.4,29.87,SSW,205,5.0,5.0,63,0.00,,---,0.00,VWS V14.01,2013-05-10 23:36:00,
2013-05-10 19:41:00,74.7,60.8,29.87,SSW,204,0.0,3.0,62,0.00,,---,0.00,VWS V14.01,2013-05-10 23:41:00,
2013-05-10 19:46:00,74.6,61.2,29.88,SSW,201,3.0,4.0,63,0.00,,---,0.00,VWS V14.01,2013-05-10 23:46:00,
2013-05-10 19:51:00,74.5,61.1,29.88,SSW,200,2.0,4.0,63,0.00,,---,0.00,VWS V14.01,2013-05-10 23:51:00,
2013-05-10 19:56:00,74.3,61.3,29.88,SSW,203,2.0,5.0,64,0.00,,---,0.00,VWS V14.01,2013-05-10 23:56:00,
2013-05-10 20:01:00,74.2,61.2,29.88,SSW,205,1.0,3.0,64,0.00,,---,0.00,VWS V14.01,2013-05-11 00:01:00,
2013-05-10 20:07:00,74.0,61.1,29.88,SSW,194,3.0,5.0,64,0.00,,---,0.00,VWS V14.01,2013-05-11 00:07:00,
2013-05-10 20:12:00,73.8,61.3,29.88,SSW,192,2.0,2.0,65,0.00,,---,0.00,VWS V14.01,2013-05-11 00:12:00,
2013-05-10 20:17:00,73.6,61.1,29.88,SSW,192,0.0,4.0,65,0.00,,---,0.00,VWS V14.01,2013-05-11 00:17:00,
2013-05-10 20:22:00,73.4,60.9,29.88,SSW,201,0.0,4.0,65,0.00,,---,0.00,VWS V14.01,2013-05-11 00:22:00,
2013-05-10 20:27:00,73.2,61.2,29.88,SSW,201,0.0,4.0,66,0.00,,---,0.00,VWS V14.01,2013-05-11 00:27:00,
2013-05-10 20:32:00,73.1,61.1,29.88,South,191,2.0,3.0,66,0.00,,---,0.00,VWS V14.01,2013-05-11 00:32:00,
2013-05-10 20:37:00,72.9,61.3,29.88,South,191,0.0,3.0,67,0.00,,---,0.00,VWS V14.01,2013-05-11 00:37:00,
2013-05-10 20:42:00,72.7,61.1,29.88,SSW,200,0.0,4.0,67,0.00,,---,0.00,VWS V14.01,2013-05-11 00:42:00,
2013-05-10 20:47:00,72.7,61.1,29.88,SSW,200,0.0,4.0,67,0.00,,---,0.00,VWS V14.01,2013-05-11 00:47:00,
2013-05-10 20:52:00,72.4,60.8,29.88,SSW,200,1.0,1.0,67,0.00,,---,0.00,VWS V14.01,2013-05-11 00:52:00,
2013-05-10 20:58:00,72.3,61.2,29.88,SSW,200,0.0,3.0,68,0.00,,---,0.00,VWS V14.01,2013-05-11 00:58:00,
2013-05-10 21:03:00,72.3,61.2,29.88,SSW,200,2.0,3.0,68,0.00,,---,0.00,VWS V14.01,2013-05-11 01:03:00,
2013-05-10 21:08:00,72.3,61.2,29.88,SSW,200,2.0,4.0,68,0.00,,---,0.00,VWS V14.01,2013-05-11 01:08:00,
2013-05-10 21:13:00,72.3,61.2,29.88,SSW,200,3.0,3.0,68,0.00,,---,0.00,VWS V14.01,2013-05-11 01:13:00,
2013-05-10 21:18:00,72.4,60.8,29.89,SSW,200,0.0,3.0,67,0.00,,---,0.00,VWS V14.01,2013-05-11 01:18:00,
2013-05-10 21:23:00,72.4,60.8,29.89,SSW,206,3.0,5.0,67,0.00,,---,0.00,VWS V14.01,2013-05-11 01:23:00,
2013-05-10 21:28:00,72.4,60.8,29.89,SSW,206,4.0,5.0,67,0.00,,---,0.00,VWS V14.01,2013-05-11 01:28:00,
2013-05-10 21:33:00,72.4,60.8,29.89,SSW,205,1.0,3.0,67,0.00,,---,0.00,VWS V14.01,2013-05-11 01:33:00,
2013-05-10 21:38:00,72.1,61.0,29.89,SSW,205,1.0,3.0,68,0.00,,---,0.00,VWS V14.01,2013-05-11 01:38:00,
2013-05-10 21:43:00,72.2,61.1,29.89,South,188,3.0,7.0,68,0.00,,---,0.00,VWS V14.01,2013-05-11 01:43:00,
2013-05-10 21:48:00,72.4,61.2,29.89,SSW,211,4.0,7.0,68,0.00,,---,0.00,VWS V14.01,2013-05-11 01:48:00,
2013-05-10 21:54:00,72.6,61.0,29.89,SSW,211,0.0,5.0,67,0.00,,---,0.00,VWS V14.01,2013-05-11 01:54:00,
2013-05-10 21:59:00,72.6,60.6,29.89,SW,227,2.0,6.0,66,0.00,,---,0.00,VWS V14.01,2013-05-11 01:59:00,
2013-05-10 22:04:00,72.6,61.0,29.89,SSW,192,0.0,6.0,67,0.00,,---,0.00,VWS V14.01,2013-05-11 02:04:00,
2013-05-10 22:09:00,72.4,60.8,29.89,SSW,196,2.0,6.0,67,0.00,,---,0.00,VWS V14.01,2013-05-11 02:09:00,
2013-05-10 22:14:00,72.4,60.8,29.90,SSW,205,2.0,5.0,67,0.00,,---,0.00,VWS V14.01,2013-05-11 02:14:00,
2013-05-10 22:19:00,72.2,60.7,29.90,SSW,206,0.0,5.0,67,0.00,,---,0.00,VWS V14.01,2013-05-11 02:19:00,
2013-05-10 22:24:00,72.0,60.9,29.90,SSW,206,0.0,1.0,68,0.00,,---,0.00,VWS V14.01,2013-05-11 02:24:00,
2013-05-10 22:29:00,71.8,60.7,29.89,SSW,206,0.0,3.0,68,0.00,,---,0.00,VWS V14.01,2013-05-11 02:29:00,
2013-05-10 22:34:00,71.6,60.9,29.89,SSW,206,0.0,1.0,69,0.00,,---,0.00,VWS V14.01,2013-05-11 02:34:00,
2013-05-10 22:39:00,71.2,60.9,29.89,SSW,206,0.0,1.0,70,0.00,,---,0.00,VWS V14.01,2013-05-11 02:39:00,
2013-05-10 22:44:00,70.8,61.7,29.88,SSW,206,0.0,0.0,73,0.00,,---,0.00,VWS V14.01,2013-05-11 02:44:00,
2013-05-10 22:50:00,70.2,61.5,29.88,SSW,206,0.0,1.0,74,0.00,,---,0.00,VWS V14.01,2013-05-11 02:50:00,
2013-05-10 22:55:00,69.8,61.2,29.88,SSW,206,0.0,1.0,74,0.00,,---,0.00,VWS V14.01,2013-05-11 02:55:00,
2013-05-10 23:00:00,69.5,60.9,29.85,SSW,206,0.0,1.0,74,0.00,,---,0.00,VWS V14.01,2013-05-11 03:00:00,
2013-05-10 23:05:00,69.5,60.9,29.85,SSW,206,0.0,0.0,74,0.00,,---,0.00,VWS V14.01,2013-05-11 03:05:00,
2013-05-10 23:10:00,69.6,61.0,29.85,SSW,206,0.0,2.0,74,0.00,,---,0.00,VWS V14.01,2013-05-11 03:10:00,
2013-05-10 23:15:00,69.6,61.3,29.87,SW,217,0.0,3.0,75,0.00,,---,0.00,VWS V14.01,2013-05-11 03:15:00,
2013-05-10 23:20:00,69.7,61.0,29.87,SW,221,2.0,2.0,74,0.00,,---,0.00,VWS V14.01,2013-05-11 03:20:00,
2013-05-10 23:25:00,69.7,61.0,29.87,SW,221,0.0,3.0,74,0.00,,---,0.00,VWS V14.01,2013-05-11 03:25:00,
2013-05-10 23:30:00,69.7,61.0,29.87,SSW,207,0.0,1.0,74,0.00,,---,0.00,VWS V14.01,2013-05-11 03:30:00,
2013-05-10 23:35:00,69.9,60.9,29.87,SSW,196,3.0,7.0,73,0.00,,---,0.00,VWS V14.01,2013-05-11 03:35:00,
2013-05-10 23:40:00,70.0,61.0,29.87,WSW,244,4.0,5.0,73,0.00,,---,0.00,VWS V14.01,2013-05-11 03:40:00,
2013-05-10 23:45:00,70.3,60.9,29.88,SSW,205,6.0,9.0,72,0.00,,---,0.00,VWS V14.01,2013-05-11 03:45:00,
2013-05-10 23:50:00,70.3,60.9,29.88,SSW,204,5.0,6.0,72,0.00,,---,0.00,VWS V14.01,2013-05-11 03:50:00,
2013-05-10 23:56:00,70.3,60.9,29.88,SSW,196,1.0,6.0,72,0.00,,---,0.00,VWS V14.01,2013-05-11 03:56:00,